Погода в Больших Чаках

Россия / Чувашская Республика     55°41′54″N   47°48′42″E
темп.,
°C
ветер,
м/с
пор.,
м/с
влажн.,
%
обл.,
%
осадки,
мм/ч
давл.,
гПа
погр.,
м
19 апреля, пн
пн1900:00+3всв61160100 0.0 1026405
03:00+1всв61270100 0.0 1027435
06:00+1всв71362100 0.0 1027552
09:00+4в8114996 0.0 1028880
12:00+6в91134100 0.0 10281424
15:00+7в91132100 0.0 10281632
18:00+5в7123798 0.0 1028975
21:00+3в7154135 0.0 1029580
20 апреля, вт
вт2000:00+1в7154613 0.0 1030469
03:000в614545 0.0 1030365
06:000в613580 0.0 1030427
09:00+5вюв811390 0.0 10311048
12:00+7вюв810320 0.0 10301307
15:00+9вюв810294 0.0 10281481
18:00+7вюв7123672 0.0 1027606
21:00+4вюв61544100 0.0 1026487
21 апреля, ср
ср2100:00+4вюв81745100 0.0 1024637
03:00+3вюв91849100 0.0 1022725
06:00+3юв112056100 0.3 1020715
09:00+2юв112177100 1.8 1020780
12:00+1юв112093100 4.6 1019762
15:00+2ююв111892100 4.7 1019738
18:00+2ююв91694100 0.0 1020556
21:00+2ююв81595100 0.0 1020480
22 апреля, чт
чт2200:00+2ююв71396100 0.1 1020421
03:00+2ююв61298100 0.1 1020379
06:00+3ю51098100 0.0 1021310
09:00+5ю689499 0.0 1021342
12:00+7ю6888100 0.0 1022541
15:00+10ю487788 0.0 1021523
18:00+9ююв698446 0.9 1022261
21:00+6ююв46916 0.9 102392
23 апреля, пт
пт2300:00+5ю47945 0.0 1023108
03:00+4ю479546 0.0 1024108
06:00+5ююв479292 0.0 1024142
09:00+11ююв56728 0.0 1024392
12:00+14ююв44565 0.0 10231032
15:00+15ююв445121 0.1 10221640
18:00+12юв47674 0.1 1022254
21:00+7юв510860 0.1 1023293